Home > Weather > Kalispell > Past weeks

Flag for USA Weather for the Past 2 Weeks in Kalispell, Montana, USA

Now
74 °F

Sunny.


Feels Like: 77 °F
Forecast: 37 / 79 °F
Wind: 6 mph from South

Location: Kalispell - Glacier Park International

Current Time: May 3, 2016 at 2:50:57 PM

Latest Report: May 3, 2016 at 1:55 PM


Visibility: 10 mi

Pressure: 30.08 "Hg (27.11 "Hg at 902m altitude)

Humidity: 31%

Dew Point: 41 °F

Location of KalispellLocation

Historic Weather in Kalispell — Graph

°F

Kalispell Temperature Yesterday

Maximum temperature yesterday: 74 °F (at 4:55 PM)
Minimum temperature yesterday: 33 °F (at 5:55 AM)
Average temperature yesterday: 55 °F

High & Low Weather Summary for the Past Weeks

 TemperatureHumidityPressure
High79 °F (Apr 20, 3:55 PM)100% (Apr 23, 1:55 AM)30.37 "Hg (Apr 23, 1:55 AM)
Low31 °F (Apr 19, 6:55 AM)11% (Apr 18, 2:55 PM)29.56 "Hg (Apr 22, 5:55 PM)
Average53 °F57%30.00 "Hg
* Reported Apr 18 12:55 PM — May 3 12:55 PM, Kalispell, Weather by CustomWeather, © 2016

Note: Actual official high and low records may vary slightly from our data, if they occured in-between our weather recording intervals... More about our weather records

Advertising

Kalispell Weather History for the Previous 24 Hours

Scroll right to see more
 ConditionsComfort  
Time TempWeatherWind HumidityBarometerVisibility
12:55 PM
Tue, May 3
70 °FSunny.6 mph34%30.11 "Hg10 mi
11:55 AM67 °FSunny.6 mph36%30.13 "Hg10 mi
10:55 AM64 °FSunny.No wind38%30.14 "Hg10 mi
9:55 AM60 °FSunny.6 mph46%30.16 "Hg10 mi
8:55 AM55 °FSunny.10 mph53%30.14 "Hg10 mi
7:55 AM49 °FSunny.No wind86%30.14 "Hg10 mi
6:55 AM38 °FClear.3 mph100%30.14 "Hg10 mi
5:55 AM38 °FClear.7 mph100%30.12 "Hg10 mi
4:55 AM38 °FClear.3 mph97%30.11 "Hg10 mi
3:55 AM40 °FClear.No wind97%30.10 "Hg10 mi
2:55 AM40 °FClear.No wind97%30.09 "Hg10 mi
1:55 AM41 °FClear.No wind96%30.09 "Hg10 mi
12:55 AM43 °FClear.5 mph89%30.08 "Hg10 mi
11:55 PM
Mon, May 2
47 °FClear.No wind83%30.07 "Hg10 mi
10:55 PM48 °FClear.3 mph83%30.08 "Hg10 mi
9:55 PM52 °FClear.No wind75%30.06 "Hg10 mi
8:55 PM63 °FSunny.No wind40%30.04 "Hg10 mi
7:55 PM68 °FSunny.7 mph40%30.04 "Hg10 mi
6:55 PM73 °FSunny.8 mph30%30.06 "Hg10 mi
5:55 PM73 °FSunny.8 mph29%30.08 "Hg10 mi
4:55 PM74 °FSunny.9 mph28%30.08 "Hg10 mi
3:55 PM73 °FSunny.7 mph27%30.10 "Hg10 mi
2:55 PM72 °FSunny.No wind24%30.12 "Hg10 mi
Weather by CustomWeather, © 2016

See weather overviewHow to use our weather pages